Monticello, KY

2:37 AM EDT on April 25, 2017 (GMT -0400)
Wayne County

Weather History for KEKQ - October, 2012

Change the Weather History Date:

Wednesday, October 10, 2012

  Actual Average Record
Temperature  
Mean Temperature 48 °F -  
Max Temperature 61 °F 71 °F 87 °F (1980)
Min Temperature 34 °F 45 °F 28 °F (1964)
Degree Days  
Heating Degree Days 16    
Moisture  
Dew Point 44 °F    
Average Humidity 81    
Maximum Humidity 100    
Minimum Humidity 44    
Precipitation  
Precipitation 0.00 in - - ()
Sea Level Pressure  
Sea Level Pressure 30.17 in    
Wind  
Wind Speed 5 mph (West)    
Max Wind Speed 12 mph    
Max Gust Speed -    
Averages and records for this station are not official NWS values.
T = Trace of Precipitation, MM = Missing Value Source: NWS Daily Summary

Daily Weather History Graph

Daily Weather History Graph

Search for Another Location

Airport or City:

Trip Planner

Search our weather history database for the weather conditions in past years. The results will help you decide how hot, cold, wet, or windy it might be!

Date:

Astronomy

Oct. 10, 2012 Rise Set
Actual Time 6:42 AM CDT 6:09 PM CDT
Civil Twilight 6:16 AM CDT 6:35 PM CDT
Nautical Twilight 5:46 AM CDT 7:05 PM CDT
Astronomical Twilight 5:16 AM CDT 7:35 PM CDT
Moon 1:25 AM CDT (10/10) 3:04 PM CDT (10/10)
Length of Visible Light 12h 18m
Length of Day
11h 26m
Waning Crescent, 27% of the Moon is Illuminated
Oct 10
Waning Crescent
Oct 15
New
Oct 21
First Quarter
Oct 29
Full
Nov 6
Last Quarter

Hourly Weather History & Observations

Time (CDT) Temp. Windchill Dew Point Humidity Pressure Visibility Wind Dir Wind Speed Gust Speed Precip Events Conditions
12:56 AM 38.8 °F - 38.8 °F 100% 30.07 in - Calm Calm - N/A   Clear
1:56 AM 39.9 °F - 39.9 °F 100% 30.07 in - Calm Calm - N/A   Clear
2:56 AM 43.0 °F - 43.0 °F 100% 30.08 in - Calm Calm - N/A   Mostly Cloudy
3:56 AM 45.0 °F - 45.0 °F 100% 30.09 in - Calm Calm - N/A   Mostly Cloudy
4:56 AM 52.0 °F - 50.0 °F 93% 30.09 in - SSW 5.8 mph - 0.00 in   Mostly Cloudy
5:56 AM 52.9 °F - 50.0 °F 90% 30.10 in - SW 6.9 mph - N/A   Mostly Cloudy
6:56 AM 54.0 °F - 50.0 °F 86% 30.11 in - SSW 6.9 mph - N/A   Mostly Cloudy
7:56 AM 54.9 °F - 50.0 °F 84% 30.13 in - SW 5.8 mph - N/A   Mostly Cloudy
8:56 AM 55.9 °F - 50.0 °F 80% 30.15 in - West 10.4 mph - N/A   Overcast
9:56 AM 54.9 °F - 50.0 °F 84% 30.17 in - West 10.4 mph - N/A   Overcast
10:56 AM 54.9 °F - 50.0 °F 84% 30.17 in - West 10.4 mph - N/A   Overcast
11:09 AM 55.4 °F - 50.0 °F 82% 30.16 in - West 9.2 mph - N/A   Overcast
11:45 AM 55.4 °F - 50.0 °F 82% 30.16 in - WSW 6.9 mph - N/A   Overcast
11:56 AM 55.9 °F - 50.0 °F 80% 30.18 in - West 8.1 mph - N/A   Overcast
12:56 PM 57.9 °F - 50.0 °F 75% 30.18 in - West 9.2 mph - N/A   Mostly Cloudy
1:56 PM 57.9 °F - 48.9 °F 72% 30.17 in - NW 11.5 mph - N/A   Overcast
2:37 PM 57.2 °F - 46.4 °F 67% 30.15 in - WNW 10.4 mph - N/A   Mostly Cloudy
2:56 PM 59.0 °F - 43.9 °F 57% 30.17 in - WNW 9.2 mph - N/A   Mostly Cloudy
3:56 PM 61.0 °F - 38.8 °F 44% 30.18 in - NW 11.5 mph - N/A   Clear
4:56 PM 59.0 °F - 36.9 °F 44% 30.19 in - NW 10.4 mph - N/A   Clear
5:56 PM 54.9 °F - 37.9 °F 53% 30.21 in - NW 5.8 mph - N/A   Clear
6:56 PM 46.9 °F - 37.9 °F 71% 30.24 in - NNW 4.6 mph - N/A   Clear
7:56 PM 45.0 °F 41.8 °F 36.9 °F 73% 30.25 in - NNW 5.8 mph - N/A   Clear
8:56 PM 38.8 °F - 36.0 °F 89% 30.27 in - Calm Calm - N/A   Clear
9:56 PM 36.0 °F - 34.9 °F 96% 30.30 in - Calm Calm - N/A   Clear
10:56 PM 36.0 °F - 36.0 °F 100% 30.31 in - Calm Calm - N/A   Clear
11:56 PM 34.9 °F - 34.9 °F 100% 30.31 in - Calm Calm - N/A   Clear